Home > Weather > Basse-Terre > Past weeks

Flag for Guadeloupe Past Weather in Basse-Terre, Guadeloupe — Yesterday and Last 2 Weeks

Now
90 °F

Passing clouds.


Feels Like: 98 °F
Forecast: 78 / 85 °F
Wind: 15 mph from Southeast

Location: Le Raizet - Guadeloupe

Current Time: Jul 27, 2016 at 1:21:50 PM

Latest Report: Jul 27, 2016 at 1:00 PM


Visibility: N/A

Pressure: 29.98 "Hg

Humidity: 59%

Dew Point: 73 °F

Location of Basse-TerreLocation

Past Weather in Basse-Terre — Graph

°F

Basse-Terre Temperature Yesterday

Maximum temperature yesterday: 90 °F (at 2:00 PM)
Minimum temperature yesterday: 77 °F (at 12:00 AM)
Average temperature yesterday: 83 °F

High & Low Weather Summary for the Past Weeks

 TemperatureHumidityPressure
High90 °F (Jul 13, 1:00 PM)100% (Jul 18, 6:30 AM)30.07 "Hg (Jul 18, 6:30 AM)
Low73 °F (Jul 15, 5:30 AM)46% (Jul 14, 11:30 AM)29.92 "Hg (Jul 12, 3:30 PM)
Average82 °F76%29.99 "Hg
* Reported Jul 12 12:00 PM — Jul 27 12:00 PM, Basse-Terre, Weather by CustomWeather, © 2016

Note: Actual official high and low records may vary slightly from our data, if they occured in-between our weather recording intervals... More about our weather records

Advertising

Basse-Terre Weather History for the Previous 24 Hours

Scroll right to see more
 ConditionsComfort  
Time TempWeatherWind HumidityBarometerVisibility
12:00 PM
Wed, Jul 27
90 °FPassing clouds.17 mph59%29.98 "HgN/A
11:30 AM90 °FPassing clouds.15 mph59%29.98 "HgN/A
11:00 AM90 °FPassing clouds.15 mph59%30.01 "HgN/A
10:30 AM88 °FBroken clouds.15 mph62%30.01 "HgN/A
10:00 AM88 °FPartly sunny.15 mph62%30.01 "HgN/A
9:30 AM88 °FPartly sunny.13 mph62%30.01 "HgN/A
9:00 AM86 °FPassing clouds.16 mph66%30.01 "HgN/A
8:30 AM86 °FScattered clouds.15 mph66%30.01 "HgN/A
8:00 AM86 °FPassing clouds.14 mph66%30.01 "HgN/A
7:30 AM84 °FPassing clouds.13 mph74%30.01 "HgN/A
7:00 AM82 °FClear.8 mph79%30.01 "HgN/A
6:30 AM81 °FPassing clouds.9 mph84%29.98 "HgN/A
6:00 AM81 °FPassing clouds.7 mph84%29.98 "HgN/A
5:30 AM81 °FClear.8 mph84%29.98 "HgN/A
5:00 AM81 °FClear.8 mph84%29.98 "HgN/A
4:30 AM81 °FClear.9 mph84%29.95 "HgN/A
4:00 AM81 °FClear.8 mph84%29.95 "HgN/A
3:30 AM81 °FClear.6 mph84%29.98 "HgN/A
3:00 AM81 °FClear.6 mph84%29.95 "HgN/A
2:30 AM81 °FClear.5 mph84%29.98 "HgN/A
2:00 AM81 °FWarm.6 mph84%29.98 "HgN/A
1:30 AM81 °FClear.7 mph84%29.98 "HgN/A
1:00 AM81 °FClear.6 mph84%29.98 "HgN/A
12:30 AM81 °FPassing clouds.8 mph84%29.98 "HgN/A
12:00 AM81 °FClear.5 mph84%30.01 "HgN/A
11:30 PM
Tue, Jul 26
81 °FPassing clouds.5 mph84%30.01 "HgN/A
11:00 PM81 °FClear.7 mph84%30.01 "HgN/A
10:30 PM81 °FPassing clouds.6 mph89%30.01 "HgN/A
10:00 PM81 °FPartly cloudy.6 mph89%30.01 "HgN/A
9:30 PM81 °FPassing clouds.5 mph84%29.98 "HgN/A
9:00 PM82 °FPassing clouds.3 mph79%29.98 "HgN/A
8:30 PM82 °FPassing clouds.2 mph79%29.98 "HgN/A
8:00 PM82 °FClear.7 mph79%29.95 "HgN/A
7:30 PM82 °FClear.7 mph79%29.95 "HgN/A
7:00 PM84 °FClear.8 mph74%29.95 "HgN/A
6:30 PM84 °FClear.9 mph74%29.95 "HgN/A
6:00 PM84 °FScattered clouds.8 mph70%29.95 "HgN/A
5:30 PM84 °FBroken clouds.14 mph74%29.95 "HgN/A
5:00 PM86 °FPartly sunny.13 mph66%29.92 "HgN/A
4:30 PM88 °FPartly sunny.12 mph62%29.92 "HgN/A
4:00 PM88 °FBroken clouds.13 mph66%29.92 "HgN/A
3:30 PM88 °FPartly sunny.13 mph62%29.92 "HgN/A
3:00 PM88 °FPartly sunny.15 mph62%29.92 "HgN/A
2:30 PM88 °FPartly sunny.17 mph62%29.95 "HgN/A
2:00 PM90 °FPartly sunny.15 mph63%29.95 "HgN/A
1:30 PM88 °FPartly sunny.18 mph66%29.95 "HgN/A
1:00 PM88 °FMostly cloudy.16 mph66%29.95 "HgN/A
Weather by CustomWeather, © 2016

See weather overviewHow to use our weather pages